GW6516 Weather Reports


time (UTC)temp
C
wind
direction
speed
KPH
gust
KPH
rain 1hr
cm
rain 24hr
cm
rain mn
cm
humidity
%
barometer
mb
20260507151542 18 0 0.0 0.0 0.00 0.00 0.00 65 1016.6
20260507151028 19 0 0.0 0.0 0.00 0.00 0.00 65 1016.6
20260507150528 19 0 0.0 0.0 0.00 0.00 0.00 65 1016.5
20260507150043 19 0 0.0 0.0 0.00 0.00 0.00 64 1016.5
20260507145528 19 0 0.0 0.0 0.00 0.00 0.00 64 1016.4
20260507145029 20 0 0.0 0.0 0.00 0.00 0.00 65 1016.3
20260507144543 20 0 0.0 0.0 0.00 0.00 0.00 64 1016.2
20260507144028 20 0 0.0 0.0 0.00 0.00 0.00 67 1016.2
20260507143526 20 0 0.0 0.0 0.00 0.00 0.00 64 1016.2
20260507143056 20 0 0.0 0.0 0.00 0.00 0.00 63 1016.1
20260507142528 21 0 0.0 0.0 0.00 0.00 0.00 62 1016.1
20260507142028 21 0 0.0 0.0 0.00 0.00 0.00 63 1016.0
20260507141548 21 0 0.0 0.0 0.00 0.00 0.00 61 1015.9
20260507141029 21 0 0.0 0.0 0.00 0.00 0.00 60 1015.8
20260507140528 22 0 0.0 0.0 0.00 0.00 0.00 61 1015.8
20260507140043 22 0 0.0 0.0 0.00 0.00 0.00 60 1015.7
20260507135529 22 0 0.0 0.0 0.00 0.00 0.00 59 1015.6
20260507135029 22 0 0.0 0.0 0.00 0.00 0.00 60 1015.6
20260507134537 23 0 0.0 0.0 0.00 0.00 0.00 59 1015.6
20260507134026 23 0 0.0 0.0 0.00 0.00 0.00 58 1015.6
20260507133529 23 0 0.0 0.0 0.00 0.00 0.00 57 1015.6
20260507133043 23 0 0.0 0.0 0.00 0.00 0.00 55 1015.6
20260507132528 24 0 0.0 3.2 0.00 0.00 0.00 54 1015.5
20260507132028 25 0 0.0 3.2 0.00 0.00 0.00 53 1015.5
20260507131546 25 0 0.0 3.2 0.00 0.00 0.00 52 1015.5
20260507131031 25 0 0.0 0.0 0.00 0.00 0.00 45 1015.5
20260507130528 26 0 0.0 0.0 0.00 0.00 0.00 46 1015.4
20260507130038 26 0 0.0 0.0 0.00 0.00 0.00 41 1015.4
20260507125528 26 0 0.0 0.0 0.00 0.00 0.00 40 1015.4
20260507125029 27 0 0.0 0.0 0.00 0.00 0.00 42 1015.3
20260507124548 27 0 0.0 0.0 0.00 0.00 0.00 43 1015.4
20260507124030 28 0 0.0 0.0 0.00 0.00 0.00 37 1015.4
20260507123527 28 0 0.0 1.6 0.00 0.00 0.00 35 1015.4
20260507123040 28 0 0.0 1.6 0.00 0.00 0.00 31 1015.4
20260507122528 28 0 0.0 4.8 0.00 0.00 0.00 30 1015.4
20260507122029 28 0 1.6 4.8 0.00 0.00 0.00 28 1015.4
20260507121539 29 0 0.0 3.2 0.00 0.00 0.00 30 1015.4
20260507121029 29 0 0.0 1.6 0.00 0.00 0.00 30 1015.4
20260507120529 29 0 0.0 4.8 0.00 0.00 0.00 28 1015.3
20260507120045 29 13 1.6 4.8 0.00 0.00 0.00 26 1015.3
20260507115531 30 31 0.0 3.2 0.00 0.00 0.00 27 1015.2
20260507115027 30 39 1.6 3.2 0.00 0.00 0.00 28 1015.2
20260507114544 30 336 0.0 4.8 0.00 0.00 0.00 29 1015.1
20260507114030 30 0 0.0 4.8 0.00 0.00 0.00 27 1015.1
20260507113529 30 22 0.0 4.8 0.00 0.00 0.00 28 1015.0
20260507113039 30 253 0.0 4.8 0.00 0.00 0.00 26 1015.0
20260507112529 30 0 0.0 8.0 0.00 0.00 0.00 25 1015.0
20260507112029 30 0 1.6 8.0 0.00 0.00 0.00 26 1015.0
20260507111539 30 190 0.0 4.8 0.00 0.00 0.00 25 1015.0
20260507111218 30 352 0.0 4.8 0.00 0.00 0.00 28 1015.0
20260507110823 30 90 0.0 3.2 0.00 0.00 0.00 28 1015.0
20260507110056 30 94 1.6 3.2 0.00 0.00 0.00 25 1014.9
20260507105528 30 0 0.0 3.2 0.00 0.00 0.00 25 1014.8
20260507105028 30 26 0.0 6.4 0.00 0.00 0.00 24 1014.9
20260507104551 30 0 0.0 6.4 0.00 0.00 0.00 25 1014.8
20260507104028 30 87 0.0 6.4 0.00 0.00 0.00 29 1014.9
20260507103530 30 348 1.6 6.4 0.00 0.00 0.00 29 1014.8
20260507103109 30 0 1.6 4.8 0.00 0.00 0.00 32 1014.9
20260507102529 30 0 0.0 4.8 0.00 0.00 0.00 28 1014.9
20260507102047 30 0 0.0 4.8 0.00 0.00 0.00 29 1014.9
20260507102043 30 0 0.0 3.2 0.00 0.00 0.00 31 1015.0
20260507100529 30 0 0.0 8.0 0.00 0.00 0.00 27 1015.0
20260507100048 30 0 0.0 8.0 0.00 0.00 0.00 27 1015.0
20260507095529 30 17 0.0 4.8 0.00 0.00 0.00 26 1015.0
20260507095030 30 0 0.0 6.4 0.00 0.00 0.00 29 1015.0
20260507094538 29 0 0.0 6.4 0.00 0.00 0.00 28 1015.0
20260507094028 30 352 0.0 6.4 0.00 0.00 0.00 30 1015.0
20260507093532 30 0 0.0 6.4 0.00 0.00 0.00 31 1015.1
20260507093037 29 321 1.6 4.8 0.00 0.00 0.00 27 1015.1
20260507092526 30 360 1.6 4.8 0.00 0.00 0.00 28 1015.1
20260507092028 30 19 1.6 4.8 0.00 0.00 0.00 28 1015.1
20260507091546 30 12 0.0 6.4 0.00 0.00 0.00 30 1015.2
20260507091030 29 65 1.6 6.4 0.00 0.00 0.00 33 1015.2
20260507090531 29 342 1.6 6.4 0.00 0.00 0.00 33 1015.2
20260507090050 29 0 1.6 6.4 0.00 0.00 0.00 33 1015.2
20260507085529 29 11 3.2 8.0 0.00 0.00 0.00 34 1015.2
20260507085027 28 352 1.6 11.3 0.00 0.00 0.00 36 1015.2
20260507084545 28 350 3.2 11.3 0.00 0.00 0.00 33 1015.2
20260507084030 28 9 1.6 8.0 0.00 0.00 0.00 35 1015.3
20260507083528 28 346 1.6 8.0 0.00 0.00 0.00 35 1015.3
20260507083039 28 61 1.6 8.0 0.00 0.00 0.00 37 1015.3
20260507082723 29 14 1.6 4.8 0.00 0.00 0.00 35 1015.3
20260507082027 29 282 0.0 3.2 0.00 0.00 0.00 39 1015.3
20260507081543 28 0 1.6 8.0 0.00 0.00 0.00 33 1015.3
20260507081028 28 90 1.6 8.0 0.00 0.00 0.00 32 1015.4
20260507080526 28 349 1.6 8.0 0.00 0.00 0.00 36 1015.4
20260507080047 28 360 0.0 6.4 0.00 0.00 0.00 34 1015.4
20260507075529 28 44 1.6 6.4 0.00 0.00 0.00 34 1015.4
20260507075027 28 312 1.6 6.4 0.00 0.00 0.00 33 1015.4
20260507074541 28 61 3.2 6.4 0.00 0.00 0.00 35 1015.4
20260507074028 28 203 0.0 4.8 0.00 0.00 0.00 37 1015.5
20260507073531 28 347 0.0 4.8 0.00 0.00 0.00 36 1015.4
20260507073042 28 352 0.0 4.8 0.00 0.00 0.00 36 1015.5
20260507072529 28 0 0.0 4.8 0.00 0.00 0.00 38 1015.5
20260507072029 28 140 1.6 4.8 0.00 0.00 0.00 34 1015.5
20260507071539 28 174 0.0 3.2 0.00 0.00 0.00 39 1015.6
20260507071028 28 150 0.0 4.8 0.00 0.00 0.00 39 1015.7
20260507070528 28 0 1.6 8.0 0.00 0.00 0.00 46 1015.8
20260507070058 27 5 0.0 8.0 0.00 0.00 0.00 43 1015.7
20260507065528 27 39 3.2 8.0 0.00 0.00 0.00 39 1015.8
20260507065028 27 0 0.0 4.8 0.00 0.00 0.00 38 1015.8
20260507064549 28 0 0.0 4.8 0.00 0.00 0.00 39 1015.8
20260507064027 28 23 0.0 8.0 0.00 0.00 0.00 39 1015.7
20260507063529 28 0 1.6 8.0 0.00 0.00 0.00 42 1015.7
20260507063039 28 344 0.0 6.4 0.00 0.00 0.00 47 1015.7
20260507062529 27 17 0.0 8.0 0.00 0.00 0.00 44 1015.7
20260507062029 27 315 3.2 8.0 0.00 0.00 0.00 41 1015.8
20260507061541 27 252 0.0 8.0 0.00 0.00 0.00 46 1015.9
20260507061028 27 334 1.6 8.0 0.00 0.00 0.00 51 1015.9
20260507060528 27 0 1.6 12.9 0.00 0.00 0.00 51 1015.9
20260507060037 26 279 0.0 12.9 0.00 0.00 0.00 51 1015.9
20260507055529 26 351 3.2 12.9 0.00 0.00 0.00 49 1015.9
20260507055028 26 0 1.6 6.4 0.00 0.00 0.00 50 1015.9
20260507054559 26 0 1.6 6.4 0.00 0.00 0.00 52 1016.0
20260507054031 26 42 0.0 4.8 0.00 0.00 0.00 50 1016.0
20260507053528 26 0 1.6 4.8 0.00 0.00 0.00 50 1016.0
20260507053053 26 28 1.6 8.0 0.00 0.00 0.00 49 1016.0
20260507052530 26 332 1.6 6.4 0.00 0.00 0.00 49 1016.0
20260507052031 26 352 0.0 4.8 0.00 0.00 0.00 50 1016.1
20260507051547 25 333 1.6 4.8 0.00 0.00 0.00 52 1016.1
20260507051029 25 0 0.0 6.4 0.00 0.00 0.00 54 1016.1
20260507050530 25 0 1.6 6.4 0.00 0.00 0.00 56 1016.1
20260507050046 25 12 1.6 6.4 0.00 0.00 0.00 53 1016.0
20260507045529 25 19 1.6 6.4 0.00 0.00 0.00 51 1016.1
20260507045029 25 360 1.6 11.3 0.00 0.00 0.00 52 1016.1
20260507044544 25 0 0.0 11.3 0.00 0.00 0.00 52 1016.1
20260507044027 25 44 0.0 6.4 0.00 0.00 0.00 53 1016.0
20260507043527 25 0 0.0 6.4 0.00 0.00 0.00 53 1016.0
20260507043042 25 336 0.0 6.4 0.00 0.00 0.00 54 1015.9
20260507042529 25 27 1.6 6.4 0.00 0.00 0.00 54 1015.9
20260507042028 25 0 1.6 6.4 0.00 0.00 0.00 51 1015.9
20260507041555 25 92 1.6 6.4 0.00 0.00 0.00 51 1015.8
20260507041028 25 267 0.0 6.4 0.00 0.00 0.00 56 1015.7
20260507040528 25 27 1.6 6.4 0.00 0.00 0.00 51 1015.7
20260507040043 26 352 1.6 4.8 0.00 0.00 0.00 50 1015.7
20260507035528 26 289 0.0 3.2 0.00 0.00 0.00 45 1015.7
20260507035029 26 0 0.0 0.0 0.00 0.00 0.00 45 1015.6
20260507034540 26 0 0.0 0.0 0.00 0.00 0.00 44 1015.6
20260507034028 26 0 0.0 0.0 0.00 0.00 0.00 48 1015.7
20260507033527 25 0 0.0 0.0 0.00 0.00 0.00 47 1015.6
20260507033040 25 0 0.0 0.0 0.00 0.00 0.00 47 1015.7
20260507032528 25 0 0.0 3.2 0.00 0.00 0.00 46 1015.8
20260507032028 25 0 0.0 3.2 0.00 0.00 0.00 48 1015.8
20260507031541 25 135 0.0 0.0 0.00 0.00 0.00 47 1015.7
20260507031028 25 0 0.0 0.0 0.00 0.00 0.00 54 1015.7
20260507030530 25 0 0.0 0.0 0.00 0.00 0.00 47 1015.9
20260507030043 24 0 0.0 0.0 0.00 0.00 0.00 49 1015.8
20260507025528 24 0 0.0 3.2 0.00 0.00 0.00 49 1015.7
20260507025027 23 0 0.0 3.2 0.00 0.00 0.00 47 1015.8
20260507024541 23 0 0.0 0.0 0.00 0.00 0.00 51 1015.8
20260507024027 23 0 0.0 0.0 0.00 0.00 0.00 51 1015.7
20260507023527 23 0 0.0 0.0 0.00 0.00 0.00 52 1015.8
20260507023037 22 0 0.0 0.0 0.00 0.00 0.00 50 1015.7
20260507022527 22 0 0.0 0.0 0.00 0.00 0.00 53 1015.7
20260507022027 21 0 0.0 0.0 0.00 0.00 0.00 54 1015.7
20260507021538 21 0 0.0 0.0 0.00 0.00 0.00 55 1015.7
20260507021029 21 0 0.0 0.0 0.00 0.00 0.00 55 1015.7
20260507020527 21 0 0.0 0.0 0.00 0.00 0.00 59 1015.6
20260507020050 20 0 0.0 0.0 0.00 0.00 0.00 59 1015.6
20260507015527 20 0 0.0 0.0 0.00 0.00 0.00 63 1015.6
20260507015026 20 0 0.0 0.0 0.00 0.00 0.00 67 1015.6
20260507014606 19 0 0.0 0.0 0.00 0.00 0.00 68 1015.7
20260507014027 18 0 0.0 0.0 0.00 0.00 0.00 68 1015.7
20260507013529 18 0 0.0 0.0 0.00 0.00 0.00 70 1015.7
20260507013047 17 0 0.0 0.0 0.00 0.00 0.00 69 1015.6
20260507012529 17 0 0.0 0.0 0.00 0.00 0.00 73 1015.6
20260507012032 17 0 0.0 0.0 0.00 0.00 0.00 74 1015.6
20260507011543 16 0 0.0 0.0 0.00 0.00 0.00 75 1015.5
20260507011026 15 0 0.0 0.0 0.00 0.00 0.00 75 1015.4
20260507010527 15 0 0.0 0.0 0.00 0.00 0.00 76 1015.4
20260507010046 14 0 0.0 0.0 0.00 0.00 0.00 78 1015.3
20260507005531 14 0 0.0 0.0 0.00 0.00 0.00 78 1015.3
20260507005028 13 0 0.0 0.0 0.00 0.00 0.00 77 1015.3
20260507004544 13 0 0.0 0.0 0.00 0.00 0.00 79 1015.1
20260507004028 12 0 0.0 0.0 0.00 0.00 0.00 79 1015.0
20260507003529 12 0 0.0 0.0 0.00 0.00 0.00 80 1014.9
20260507003043 12 0 0.0 0.0 0.00 0.00 0.00 80 1014.9
20260507002529 12 0 0.0 0.0 0.00 0.00 0.00 82 1014.8
20260507002029 11 0 0.0 0.0 0.00 0.00 0.00 82 1014.8
20260507001555 11 0 0.0 0.0 0.00 0.00 0.00 83 1014.7
20260507001026 11 0 0.0 1.6 0.00 0.00 0.00 83 1014.9
20260507000528 11 0 0.0 3.2 0.00 0.00 0.00 84 1014.7
20260507000054 11 0 0.0 3.2 0.00 0.00 0.00 84 1014.7
20260506235526 11 0 1.6 3.2 0.00 0.00 0.00 85 1014.7
20260506235028 11 0 0.0 1.6 0.00 0.00 0.00 85 1014.7
20260506234601 11 0 0.0 0.0 0.00 0.00 0.00 85 1014.6
20260506234028 11 0 0.0 0.0 0.00 0.00 0.00 85 1014.6
20260506233529 11 0 0.0 3.2 0.00 0.00 0.00 85 1014.6
20260506233048 11 0 0.0 3.2 0.00 0.00 0.00 85 1014.6
20260506232529 11 90 0.0 1.6 0.00 0.00 0.00 85 1014.6
20260506232029 11 0 0.0 0.0 0.00 0.00 0.00 85 1014.5
20260506231539 11 0 0.0 0.0 0.00 0.00 0.00 85 1014.4
20260506231029 11 0 0.0 0.0 0.00 0.00 0.00 85 1014.4
20260506230527 11 0 0.0 0.0 0.00 0.00 0.00 84 1014.3
20260506230039 11 0 0.0 0.0 0.00 0.00 0.00 84 1014.4
20260506225527 11 0 0.0 0.0 0.00 0.00 0.00 84 1014.4
20260506225027 12 0 0.0 0.0 0.00 0.00 0.00 83 1014.4
20260506224547 12 0 0.0 0.0 0.00 0.00 0.00 83 1014.5
20260506224027 12 0 0.0 0.0 0.00 0.00 0.00 82 1014.5
20260506223528 12 0 0.0 1.6 0.00 0.00 0.00 82 1014.4
20260506223042 12 0 0.0 1.6 0.00 0.00 0.00 82 1014.5
20260506222527 12 190 0.0 0.0 0.00 0.00 0.00 82 1014.5
20260506222029 12 0 0.0 0.0 0.00 0.00 0.00 82 1014.6
20260506221552 12 0 0.0 0.0 0.00 0.00 0.00 82 1014.6
20260506221027 12 0 0.0 0.0 0.00 0.00 0.00 82 1014.6
20260506220529 12 0 0.0 0.0 0.00 0.00 0.00 82 1014.6
20260506220046 12 0 0.0 0.0 0.00 0.00 0.00 82 1014.7
20260506215526 12 0 0.0 0.0 0.00 0.00 0.00 82 1014.9
20260506215028 12 0 0.0 0.0 0.00 0.00 0.00 82 1014.9
20260506214537 12 0 0.0 0.0 0.00 0.00 0.00 82 1014.9
20260506214026 12 0 0.0 0.0 0.00 0.00 0.00 82 1015.0
20260506213527 12 0 0.0 0.0 0.00 0.00 0.00 82 1015.0
20260506213048 12 0 0.0 0.0 0.00 0.00 0.00 83 1015.1
20260506212529 12 0 0.0 0.0 0.00 0.00 0.00 83 1015.1
20260506212030 12 0 0.0 0.0 0.00 0.00 0.00 84 1015.1
20260506211549 12 0 0.0 0.0 0.00 0.00 0.00 84 1015.1
20260506211027 12 0 0.0 0.0 0.00 0.00 0.00 84 1015.1
20260506210529 12 0 0.0 0.0 0.00 0.00 0.00 84 1015.2
20260506210046 12 0 0.0 0.0 0.00 0.00 0.00 84 1015.2
20260506205529 12 0 0.0 0.0 0.00 0.00 0.00 84 1015.2
20260506205029 13 0 0.0 0.0 0.00 0.00 0.00 83 1015.2
20260506204539 13 0 0.0 0.0 0.00 0.00 0.00 83 1015.2
20260506204028 13 0 0.0 0.0 0.00 0.00 0.00 83 1015.2
20260506203529 13 0 0.0 0.0 0.00 0.00 0.00 83 1015.2
20260506203045 13 0 0.0 0.0 0.00 0.00 0.00 83 1015.2
20260506202529 13 0 0.0 0.0 0.00 0.00 0.00 82 1015.2
20260506202029 13 0 0.0 0.0 0.00 0.00 0.00 82 1015.3
20260506201549 13 0 0.0 0.0 0.00 0.00 0.00 82 1015.3
20260506201027 13 0 0.0 0.0 0.00 0.00 0.00 82 1015.3
20260506200526 13 0 0.0 0.0 0.00 0.00 0.00 82 1015.3
20260506200046 13 0 0.0 0.0 0.00 0.00 0.00 82 1015.4
20260506195529 13 0 0.0 0.0 0.00 0.00 0.00 82 1015.4
20260506195029 13 0 0.0 0.0 0.00 0.00 0.00 82 1015.4
20260506194540 13 0 0.0 0.0 0.00 0.00 0.00 81 1015.5
20260506194027 13 0 0.0 0.0 0.00 0.00 0.00 81 1015.5
20260506193528 13 0 0.0 0.0 0.00 0.00 0.00 81 1015.5
20260506193050 13 0 0.0 0.0 0.00 0.00 0.00 82 1015.5
20260506192530 13 0 0.0 0.0 0.00 0.00 0.00 82 1015.5
20260506192028 13 0 0.0 0.0 0.00 0.00 0.00 83 1015.5
20260506191538 13 0 0.0 0.0 0.00 0.00 0.00 82 1015.5
20260506191029 13 0 0.0 0.0 0.00 0.00 0.00 82 1015.6
20260506190529 13 0 0.0 0.0 0.00 0.00 0.00 82 1015.6
20260506190035 13 0 0.0 0.0 0.00 0.00 0.00 81 1015.6
20260506185527 13 0 0.0 0.0 0.00 0.00 0.00 81 1015.7
20260506185027 14 0 0.0 0.0 0.00 0.00 0.00 81 1015.7
20260506184543 14 0 0.0 0.0 0.00 0.00 0.00 80 1015.8
20260506184027 14 0 0.0 0.0 0.00 0.00 0.00 80 1015.9
20260506183529 14 0 0.0 0.0 0.00 0.00 0.00 79 1015.9
20260506183037 14 0 0.0 0.0 0.00 0.00 0.00 79 1016.0
20260506182528 15 0 0.0 3.2 0.00 0.00 0.00 79 1016.0
20260506182027 15 0 0.0 3.2 0.00 0.00 0.00 80 1016.1
20260506181553 15 0 0.0 3.2 0.00 0.00 0.00 80 1016.1
20260506181029 14 0 0.0 3.2 0.00 0.00 0.00 80 1016.2
20260506180529 14 0 0.0 1.6 0.00 0.00 0.00 81 1016.3
20260506180047 14 0 0.0 1.6 0.00 0.00 0.00 82 1016.4
20260506175529 14 0 0.0 1.6 0.00 0.00 0.00 83 1016.4
20260506175027 14 0 0.0 0.0 0.00 0.00 0.00 83 1016.4
20260506174539 14 0 0.0 0.0 0.00 0.00 0.00 83 1016.5
20260506174030 14 0 0.0 0.0 0.00 0.00 0.00 83 1016.6
20260506173529 14 0 0.0 0.0 0.00 0.00 0.00 82 1016.7
20260506173111 15 0 0.0 0.0 0.00 0.00 0.00 82 1016.8
20260506172527 15 0 0.0 3.2 0.00 0.00 0.00 82 1016.8
20260506172028 15 0 0.0 3.2 0.00 0.00 0.00 82 1016.9
20260506171543 15 0 0.0 1.6 0.00 0.00 0.00 81 1016.9
20260506171028 15 0 0.0 0.0 0.00 0.00 0.00 81 1016.9
20260506170528 15 0 0.0 0.0 0.00 0.00 0.00 81 1016.9
20260506170052 15 0 0.0 0.0 0.00 0.00 0.00 81 1016.9
20260506165529 15 0 0.0 0.0 0.00 0.00 0.00 80 1016.9
20260506165030 15 0 0.0 0.0 0.00 0.00 0.00 80 1016.9
20260506164539 15 0 0.0 0.0 0.00 0.00 0.00 79 1017.0
20260506164028 15 0 0.0 0.0 0.00 0.00 0.00 79 1017.0
20260506163527 15 0 0.0 0.0 0.00 0.00 0.00 78 1017.0
20260506163043 16 0 0.0 0.0 0.00 0.00 0.00 77 1017.0
20260506162529 16 0 0.0 0.0 0.00 0.00 0.00 76 1017.0
20260506162028 16 0 0.0 0.0 0.00 0.00 0.00 76 1017.0
20260506161542 16 0 0.0 0.0 0.00 0.00 0.00 76 1016.9
20260506161028 16 0 0.0 0.0 0.00 0.00 0.00 75 1017.0
20260506160527 16 0 0.0 0.0 0.00 0.00 0.00 74 1017.0
20260506160045 16 0 0.0 0.0 0.00 0.00 0.00 74 1017.1
20260506155527 17 0 0.0 1.6 0.00 0.00 0.00 73 1017.1
20260506155030 17 0 0.0 1.6 0.00 0.00 0.00 73 1017.1
20260506154603 17 0 0.0 3.2 0.00 0.00 0.00 72 1017.1
20260506154028 17 0 0.0 3.2 0.00 0.00 0.00 71 1017.2
20260506153528 17 0 0.0 3.2 0.00 0.00 0.00 71 1017.3
20260506153043 17 0 0.0 0.0 0.00 0.00 0.00 70 1017.3
20260506152529 17 0 0.0 0.0 0.00 0.00 0.00 70 1017.2
20260506152028 18 0 0.0 3.2 0.00 0.00 0.00 69 1017.2